Hourly Data Report for June 24, 2003

SHERBROOKE A
QUEBEC

45°26'00.000" N
71°41'00.000" W
241.40 m
7028124
71610
YSC

Download Data

Hourly Data (June 2003)
Hourly Data Report for June 24, 2003
TIME
LST
Temp Definition
°C
Dew Point Definition
°C
Rel Hum Definition
%
Precip. Amount Definition
mm

Wind Dir Definition
10's deg

Wind Spd Definition
km/h
Visibility Definition
km
Stn Press Definition
kPa
Hmdx Definition


Wind Chill Definition


Weather Definition


00:00 17.2 15.9 92   13 4 11.3 98.31      
01:00 15.6 14.7 94     0 11.3 98.32      
02:00 15.0 14.4 96     0 8.0 98.31      
03:00 14.0 13.7 98     0 3.9 98.31      
04:00 13.9 13.5 97   12 4 6.4 98.37      
05:00 14.2 13.8 97   8 4 1.0 98.43      
06:00 17.9 16.4 91     0 8.0 98.46      
07:00 21.2 17.7 80     0 24.1 98.49 27   Clear
08:00 23.9 18.5 72   22 7 24.1 98.49 30   Clear
09:00 25.8 18.4 64   23 7 24.1 98.53 32   Clear
10:00 26.9 18.7 61   28 9 24.1 98.53 33   Clear
11:00 29.0 19.1 55   27 11 24.1 98.53 36   Clear
12:00 30.1 18.7 51   28 7 19.3 98.52 37   Clear
13:00 31.2 19.1 49   28 7 19.3 98.49 38   Clear
14:00 31.7 16.9 41   25 17 19.3 98.45 37   Clear
15:00 31.5 16.4 40   27 15 19.3 98.43 36   Clear
16:00 30.9 16.3 41   27 17 19.3 98.43 36   Mainly Clear
17:00 30.2 14.3 38   27 19 15.0 98.42 34    
18:00 28.5 12.5 37   27 13 15.0 98.45 31    
19:00 24.8 13.5 49   26 6 15.0 98.46 28    
20:00 19.0 14.5 75   18 7 15.0 98.49      
21:00 19.9 12.9 64   19 9 15.0 98.52      
22:00 17.6 13.0 74     0 15.0 98.56      
23:00 15.6 13.4 87   29 4 15.0 98.57      

Notes on Data Quality.

Legend

  • E = Estimated
  • M = Missing
  • NA = Not Available*
  • [empty] = Indicates an unobserved value
Date modified: